Regional Weather Roundup
Issued by NWS

Home | Current Version | Previous Version | Graphics & Text | Print | Product List | Glossary On
Versions: 1 2 3 4 5 6 7 8 9 10 11 12 13 14 15 16 17 18 19 20 21 22 23 24 25
000
ASUS45 KPSR 170710
RWRAZ

ARIZONA HOURLY REGIONAL WEATHER ROUNDUP
NATIONAL WEATHER SERVICE PHOENIX AZ
1200 AM MST SAT FEB 17 2018

NOTE: FAIR INDICATES FEW OR NO CLOUDS BELOW 12,000 FEET WITH NO
SIGNIFICANT WEATHER AND/OR OBSTRUCTIONS TO VISIBILITY.

AZZ001>003-036-170800-
NORTHWEST ARIZONA

CITY           SKY/WX    TMP DP  RH WIND       PRES   REMARKS
BULLHEAD CITY  CLEAR     54  27  35 N9        30.15S
KINGMAN        CLEAR     35  24  64 SE8       30.18F WCI  29
$$

AZZ004>008-015-016-018-170800-
NORTH CENTRAL ARIZONA

CITY           SKY/WX    TMP DP  RH WIND       PRES   REMARKS
GRAND CANYON   CLEAR     20  18  92 CALM      30.21R
WILLIAMS       CLEAR     27  23  86 S8        30.19S WCI  18
PRESCOTT       CLEAR     37  31  78 CALM      30.20R
FLAGSTAFF      CLEAR     28  26  92 W5        30.21R WCI  23
PAYSON         PTCLDY    39  36  87 CALM      30.18R
PAGE           CLEAR     35  21  56 CALM      30.16S
$$

AZZ009>014-017-170800-
NORTHEAST ARIZONA

CITY           SKY/WX    TMP DP  RH WIND       PRES   REMARKS
WINSLOW        MOCLDY    35  19  52 CALM      30.19R
SAINT JOHNS    MOCLDY    39  35  86 SW3       30.16S
WINDOW ROCK    MOCLDY    31  27  85 CALM      30.18R
SHOW LOW       MOCLDY    37  36  93 S10       30.19F WCI  30
$$

AZZ540-542>544-546-548-170800-
GREATER PHOENIX AREA

CITY           SKY/WX    TMP DP  RH WIND       PRES   REMARKS
PHOENIX        PTCLDY    61  46  57 E8        30.10S
BUCKEYE        CLEAR     50  50 100 CALM      30.13R
LUKE AFB       CLEAR     52  51  94 W7        30.10R
DEER VALLEY    CLEAR     52  47  83 CALM      30.12R
SCOTTSDALE     PTCLDY    56  45  66 CALM      30.13S
MESA-GATEWAY   CLOUDY   N/A N/A N/A SE7       30.14S
$$

AZZ539-553-170800-
SOUTHWEST MARICOPA COUNTY AND PINAL COUNTY

CITY           SKY/WX    TMP DP  RH WIND       PRES   REMARKS
CASA GRANDE      N/A     50  49  96 CALM      30.14S FOG
GILA BEND      FAIR      52  51  97 SE7       30.12R
$$

AZZ503-504-507>509-170800-
SOUTHEAST ARIZONA

CITY           SKY/WX    TMP DP  RH WIND       PRES   REMARKS
TUCSON         CLOUDY    56  55  97 CALM        N/A  FOG
DAVIS-MONTHAN  MOCLDY    55  55 100 CALM      30.16R FOG
NOGALES        CLOUDY    51  50  96 N5        30.17R
SIERRA VISTA   LGT RAIN  48  46  93 W3        30.20S
DOUGLAS        CLOUDY    51  51 100 CALM      30.17S
SAFFORD        CLOUDY    53  52  96 CALM      30.13R
$$

AZZ532-170800-
SOUTHWEST ARIZONA

CITY           SKY/WX    TMP DP  RH WIND       PRES   REMARKS
YUMA           CLEAR     54  30  40 CALM      30.12R
$$

CAZ041-043-047-048-061-525>527-560>570-170800-
SOUTHERN CALIFORNIA

CITY           SKY/WX    TMP DP  RH WIND       PRES   REMARKS
DOWNTOWN L.A.  CLEAR     59  39  47 CALM      30.12R
L.A. AIRPORT   CLEAR     57  52  83 E5        30.12S
SAN DIEGO      CLEAR     59  30  33 CALM      30.13S
BURBANK        CLEAR     55  36  48 CALM      30.12R
ONTARIO        CLEAR     55  25  31 N6        30.14R
RIVERSIDE      CLEAR     52  26  36 E5        30.14S
PALM SPRINGS   CLEAR     56  17  21 N6        30.16R
EL CENTRO NAS  CLEAR     50  23  34 W3        30.13S
IMPERIAL       CLEAR     50  31  48 CALM      30.11S
BLYTHE         CLEAR     50  13  22 NW5       30.14R
NEEDLES        CLEAR     50  13  22 SW10      30.16R
$$

NVZ020-UTZ003-170800-
SOUTHERN NEVADA-UTAH

CITY           SKY/WX    TMP DP  RH WIND       PRES   REMARKS
LAS VEGAS      CLEAR     47  17  30 S3        30.16F
SALT LAKE CITY PTCLDY    34  17  50 SE8       30.16S WCI  27
$$

NMZ009-TXZ055-170800-
NEW MEXICO-WEST TEXAS

CITY           SKY/WX    TMP DP  RH WIND       PRES   REMARKS
ALBUQUERQUE    CLOUDY    40  37  89 CALM      30.14R
EL PASO        CLOUDY    49  49 100 N3        30.13S
$$


........................KEY........................
SKY/WX - SKY CONDITION/WEATHER
TMP    - TEMPERATURE IN FAHRENHEIT
DP     - DEW POINT IN FAHRENHEIT
RH     - RELATIVE HUMIDITY IN PERCENT
WIND   - DIRECTION AND SPEED IN MILES PER HOUR (MPH)
VRB    - VARIABLE WIND DIRECTION
PRES   - MEAN SEA LEVEL PRESSURE IN INCHES OF MERCURY
         F - FALLING PRESSURE   R - RISING PRESSURE
         S - STEADY PRESSURE
VSB    - VISIBILITY IN MILES
HX     - HEAT INDEX IN FAHRENHEIT
WCI    - WIND CHILL INDEX IN FAHRENHEIT
TC     - TEMPERATURE IN CELSIUS WHICH IS ALSO KNOWN AS
         TEMPERATURE IN CENTIGRADE
AFB    - AIR FORCE BASE
         LUKE AFB IS LUKE AIR FORCE BASE
         DAVIS-MONTHAN IS DAVIS-MONTHAN AIR FORCE BASE
NAS    - NAVAL AIR STATION
         EL CENTRO NAS IS EL CENTRO NAVAL AIR STATION
N/A    - NOT AVAILABLE





USA.gov is the U.S. government's official web portal to all federal, state and local government web resources and services.